Weather History for Oklahoma City, OK

Change the Weather History Date:

Saturday, February 16, 2013

  Actual Average Record
Temperature  
Mean Temperature 40 °F 44 °F  
Max Temperature 53 °F 55 °F 81 °F (1927)
Min Temperature 26 °F 33 °F 4 °F (1903)
Degree Days  
Heating Degree Days 25 21  
Month to date heating degree days 318 365  
Since 1 July heating degree days 2270 2518  
Moisture  
Dew Point 26 °F    
Average Humidity 64    
Maximum Humidity 96    
Minimum Humidity 32    
Precipitation  
Precipitation 0.01 in 0.05 in 2.15 in (1940)
Month to date precipitation 0.70 0.84  
Year to date precipitation 1.84 2.23  
Snow  
Snow T in 0.00 in 2.20 in (1978)
Month to date snowfall 2.3 0.9  
Since 1 July snowfall 3.7 6.2  
Snow Depth -    
Sea Level Pressure  
Sea Level Pressure 30.28 in    
Wind  
Wind Speed 9 mph (West)    
Max Wind Speed 23 mph    
Max Gust Speed 30 mph    
Visibility 9 miles    
Events Snow    
T = Trace of Precipitation, MM = Missing Value Source: NWS Daily Summary

Daily Weather History Graph

Daily Weather History Graph

Search for Another Location

Airport:

Trip Planner

Search our weather history database for the weather conditions in past years. The results will help you decide how hot, cold, wet, or windy it might be!

Date:

Astronomy

Feb. 16, 2013 Rise Set
Actual Time 7:15 AM CST 6:13 PM CST
Civil Twilight 6:49 AM CST 6:39 PM CST
Nautical Twilight 6:19 AM CST 7:09 PM CST
Astronomical Twilight 5:50 AM CST 7:39 PM CST
Moon 10:44 AM CST (2/16) No Moon Set
Length of Visible Light 11h 50m
Length of Day
10h 58m
Waxing Crescent, 39% of the Moon is Illuminated
Feb 16
Waxing Crescent
Feb 17
First Quarter
Feb 25
Full
Mar 4
Last Quarter
Mar 11
New

Hourly Weather History & Observations

Time (CST) Temp. Windchill Dew Point Humidity Pressure Visibility Wind Dir Wind Speed Gust Speed Precip Events Conditions
12:05 AM 33.8 °F 25.3 °F 30.2 °F 87% 30.38 in 6.0 mi NNW 11.5 mph - 0.00 in Snow Light Snow
12:14 AM 33.8 °F 25.8 °F 30.2 °F 87% 30.38 in 2.5 mi NNW 10.4 mph - 0.00 in Snow Light Snow
12:19 AM 33.8 °F 25.8 °F 30.2 °F 87% 30.38 in 1.2 mi NNW 10.4 mph - 0.00 in Snow Light Snow
12:27 AM 33.8 °F 27.0 °F 30.2 °F 87% 30.38 in 2.0 mi NNW 8.1 mph - 0.00 in Snow Light Snow
12:50 AM 33.8 °F 27.7 °F 32.0 °F 93% 30.37 in 3.0 mi NNW 6.9 mph - 0.01 in Snow Light Snow
12:52 AM 33.1 °F 26.9 °F 32.0 °F 96% 30.40 in 3.0 mi NNW 6.9 mph - 0.01 in Snow Light Snow
1:52 AM 33.1 °F 25.5 °F 30.9 °F 92% 30.40 in 10.0 mi NW 9.2 mph - 0.00 in   Mostly Cloudy
2:52 AM 33.1 °F 24.4 °F 30.0 °F 89% 30.39 in 10.0 mi NW 11.5 mph - N/A   Mostly Cloudy
3:52 AM 33.1 °F 23.4 °F 30.0 °F 89% 30.38 in 10.0 mi NNW 13.8 mph - N/A   Mostly Cloudy
4:05 AM 32.0 °F 23.0 °F 28.4 °F 87% 30.36 in 10.0 mi NNW 11.5 mph - N/A   Mostly Cloudy
4:52 AM 30.9 °F 23.5 °F 27.0 °F 85% 30.38 in 10.0 mi North 8.1 mph - N/A   Scattered Clouds
5:52 AM 28.9 °F 21.9 °F 24.1 °F 82% 30.38 in 10.0 mi NNW 6.9 mph - N/A   Clear
6:52 AM 27.0 °F 20.5 °F 21.0 °F 78% 30.38 in 10.0 mi NNW 5.8 mph - N/A   Clear
7:52 AM 28.0 °F 21.7 °F 23.0 °F 81% 30.39 in 10.0 mi NNW 5.8 mph - N/A   Clear
8:52 AM 30.9 °F - 23.0 °F 72% 30.40 in 10.0 mi Calm Calm - N/A   Clear
9:52 AM 35.1 °F - 19.0 °F 52% 30.39 in 10.0 mi Calm Calm - N/A   Clear
10:52 AM 37.9 °F - 19.0 °F 47% 30.38 in 10.0 mi Calm Calm - N/A   Partly Cloudy
11:52 AM 41.0 °F 39.0 °F 19.0 °F 41% 30.34 in 10.0 mi SSE 3.5 mph - N/A   Partly Cloudy
12:52 PM 45.0 °F 39.3 °F 17.1 °F 33% 30.29 in 10.0 mi SW 11.5 mph - N/A   Partly Cloudy
1:52 PM 46.9 °F - 21.0 °F 36% 30.23 in 10.0 mi SW 15.0 mph 19.6 mph N/A   Clear
2:52 PM 50.0 °F - 23.0 °F 35% 30.19 in 10.0 mi SSW 15.0 mph 23.0 mph N/A   Partly Cloudy
3:52 PM 52.0 °F - 25.0 °F 35% 30.17 in 10.0 mi SW 15.0 mph 24.2 mph N/A   Clear
4:52 PM 53.1 °F - 25.0 °F 34% 30.15 in 10.0 mi SSW 17.3 mph - N/A   Clear
5:52 PM 51.1 °F - 26.1 °F 38% 30.13 in 10.0 mi SW 10.4 mph - N/A   Partly Cloudy
6:52 PM 41.0 °F 34.7 °F 27.0 °F 57% 30.13 in 10.0 mi South 10.4 mph - N/A   Partly Cloudy
7:52 PM 41.0 °F 35.2 °F 28.0 °F 60% 30.13 in 10.0 mi South 9.2 mph - N/A   Partly Cloudy
8:52 PM 39.0 °F 32.8 °F 28.0 °F 65% 30.12 in 10.0 mi South 9.2 mph - N/A   Partly Cloudy
9:52 PM 37.9 °F 30.9 °F 28.0 °F 68% 30.11 in 10.0 mi South 10.4 mph - N/A   Partly Cloudy
10:52 PM 39.0 °F 32.8 °F 28.0 °F 65% 30.09 in 10.0 mi South 9.2 mph - N/A   Partly Cloudy
11:52 PM 37.9 °F 31.5 °F 28.0 °F 68% 30.07 in 10.0 mi South 9.2 mph - N/A   Partly Cloudy